When you browse on this site, cookies collect data to enhance your experience and personalize the content and advertising you see.
Visit our Privacy Policy to learn more. By continuing to use the site, you agree to this use of cookies and data.
  • In Hungary
  • List of Countries
  • For 7 days
  • Water Temperature
  • Weather Map
  • News
  • Weather Widgets
  • user-avatar
    Login

    Hourly Weather Zaykovo

    Today, 16 October, Wednesday

    Time Temperature Precipitation Wind Pressure Humidity
    00:00 +2°C° 0 mm 1 mps 754 mmHg 83%
    01:00 +2°C° 0 mm 1 mps 754 mmHg 83%
    02:00 +2°C° 0 mm 1 mps 754 mmHg 83%
    03:00 +1°C° 0 mm 2 mps 754 mmHg 82%
    04:00 +2°C° 0 mm 2 mps 754 mmHg 81%
    05:00 +2°C° 0 mm 2 mps 754 mmHg 80%
    06:00 +2°C° 0 mm 2 mps 754 mmHg 79%
    07:00 +1°C° 0 mm 3 mps 754 mmHg 77%
    08:00 0°C° 0 mm 4 mps 754 mmHg 76%
    09:00 +1°C° 0 mm 4 mps 753 mmHg 74%
    10:00 +3°C° 0 mm 4 mps 753 mmHg 72%
    11:00 +4°C° 0 mm 4 mps 752 mmHg 71%
    12:00 +3°C° 0 mm 5 mps 752 mmHg 72%
    13:00 +5°C° 0 mm 5 mps 751 mmHg 73%
    14:00 +5°C° 0 mm 5 mps 750 mmHg 74%
    15:00 +5°C° 0 mm 5 mps 750 mmHg 77%
    16:00 +5°C° 0 mm 5 mps 749 mmHg 80%
    17:00 +6°C° 0 mm 4 mps 748 mmHg 83%
    18:00 +6°C° 0 mm 4 mps 748 mmHg 86%
    19:00 +6°C° 0 mm 4 mps 748 mmHg 88%
    20:00 +6°C° 0 mm 4 mps 747 mmHg 91%
    21:00 +6°C° 0 mm 4 mps 747 mmHg 92%
    22:00 +8°C° 0 mm 3 mps 746 mmHg 93%
    23:00 +8°C° 0 mm 3 mps 746 mmHg 94%

    Tomorrow, 17 October, Thursday

    Time Temperature Precipitation Wind Pressure Humidity
    00:00 +8°C° 0 mm 3 mps 746 mmHg 94%
    01:00 +8°C° 0 mm 3 mps 746 mmHg 95%
    02:00 +9°C° 0 mm 3 mps 745 mmHg 95%
    03:00 +9°C° 0 mm 3 mps 745 mmHg 95%
    04:00 +9°C° 0 mm 3 mps 745 mmHg 95%
    05:00 +8°C° 0 mm 4 mps 744 mmHg 95%
    06:00 +8°C° 0 mm 4 mps 744 mmHg 94%
    07:00 +10°C° 0 mm 3 mps 744 mmHg 93%
    08:00 +10°C° 0 mm 3 mps 744 mmHg 92%
    09:00 +11°C° 0 mm 3 mps 744 mmHg 89%
    10:00 +12°C° 0 mm 3 mps 744 mmHg 85%
    11:00 +13°C° 0 mm 3 mps 744 mmHg 82%
    12:00 +13°C° 0.2 mm 3 mps 744 mmHg 83%
    13:00 +13°C° 0.2 mm 3 mps 743 mmHg 84%
    14:00 +12°C° 0.2 mm 3 mps 743 mmHg 85%
    15:00 +12°C° 0.2 mm 3 mps 743 mmHg 87%
    16:00 +12°C° 0.2 mm 3 mps 742 mmHg 89%
    17:00 +11°C° 0.2 mm 3 mps 742 mmHg 91%
    18:00 +11°C° 0.5 mm 3 mps 742 mmHg 92%
    19:00 +11°C° 0.5 mm 3 mps 742 mmHg 93%
    20:00 +11°C° 0.5 mm 3 mps 742 mmHg 94%
    21:00 +10°C° 0.5 mm 3 mps 742 mmHg 93%
    22:00 +10°C° 0.5 mm 3 mps 742 mmHg 93%
    23:00 +9°C° 0.5 mm 3 mps 742 mmHg 93%

    Day after tomorrow, 18 October, Friday

    Time Temperature Precipitation Wind Pressure Humidity
    00:00 +9°C° 0 mm 3 mps 743 mmHg 93%
    01:00 +9°C° 0 mm 3 mps 743 mmHg 93%
    02:00 +9°C° 0 mm 2 mps 743 mmHg 93%
    03:00 +9°C° 0 mm 2 mps 744 mmHg 94%
    04:00 +9°C° 0 mm 2 mps 744 mmHg 94%
    05:00 +9°C° 0 mm 2 mps 744 mmHg 94%
    06:00 +10°C° 0 mm 2 mps 745 mmHg 94%
    07:00 +10°C° 0 mm 2 mps 745 mmHg 93%
    08:00 +10°C° 0 mm 2 mps 745 mmHg 92%
    09:00 +10°C° 0 mm 2 mps 746 mmHg 91%
    10:00 +10°C° 0 mm 2 mps 746 mmHg 90%
    11:00 +12°C° 0 mm 2 mps 747 mmHg 89%
    12:00 +12°C° 0 mm 2 mps 747 mmHg 87%
    13:00 +12°C° 0 mm 2 mps 747 mmHg 85%
    14:00 +13°C° 0 mm 2 mps 747 mmHg 83%
    15:00 +12°C° 0 mm 1 mps 747 mmHg 86%
    16:00 +12°C° 0 mm 1 mps 747 mmHg 88%
    17:00 +11°C° 0 mm 1 mps 748 mmHg 91%
    18:00 +11°C° 0 mm 1 mps 748 mmHg 92%
    19:00 +11°C° 0 mm 1 mps 748 mmHg 94%
    20:00 +11°C° 0 mm 1 mps 748 mmHg 95%
    21:00 +10°C° 0 mm 1 mps 748 mmHg 95%
    22:00 +10°C° 0 mm 1 mps 748 mmHg 96%
    23:00 +10°C° 0 mm 1 mps 748 mmHg 96%

    19 October, Saturday

    Time Temperature Precipitation Wind Pressure Humidity
    00:00 +10°C° 0 mm 1 mps 748 mmHg 96%
    01:00 +10°C° 0 mm 1 mps 748 mmHg 97%
    02:00 +10°C° 0 mm 1 mps 749 mmHg 97%
    03:00 +10°C° 0.1 mm 1 mps 749 mmHg 97%
    04:00 +10°C° 0.1 mm 1 mps 749 mmHg 97%
    05:00 +9°C° 0.1 mm 2 mps 749 mmHg 98%
    06:00 +9°C° 0 mm 2 mps 749 mmHg 97%
    07:00 +9°C° 0 mm 2 mps 749 mmHg 96%
    08:00 +10°C° 0 mm 2 mps 749 mmHg 95%
    09:00 +10°C° 0 mm 2 mps 750 mmHg 92%
    10:00 +12°C° 0 mm 2 mps 750 mmHg 90%
    11:00 +12°C° 0 mm 2 mps 750 mmHg 88%
    12:00 +12°C° 0 mm 2 mps 750 mmHg 87%
    13:00 +13°C° 0 mm 2 mps 750 mmHg 86%
    14:00 +13°C° 0 mm 2 mps 750 mmHg 86%
    15:00 +13°C° 0 mm 2 mps 750 mmHg 89%
    16:00 +12°C° 0 mm 2 mps 750 mmHg 91%
    17:00 +12°C° 0 mm 2 mps 750 mmHg 94%
    18:00 +12°C° 0 mm 2 mps 750 mmHg 93%
    19:00 +12°C° 0 mm 2 mps 750 mmHg 92%
    20:00 +11°C° 0 mm 3 mps 750 mmHg 91%
    21:00 +11°C° 0 mm 3 mps 750 mmHg 92%
    22:00 +12°C° 0 mm 2 mps 750 mmHg 92%
    23:00 +10°C° 0 mm 2 mps 750 mmHg 93%

    20 October, Sunday

    Time Temperature Precipitation Wind Pressure Humidity
    00:00 +10°C° 0 mm 2 mps 750 mmHg 93%
    01:00 +10°C° 0 mm 2 mps 750 mmHg 94%
    02:00 +10°C° 0 mm 2 mps 749 mmHg 94%
    03:00 +9°C° 0 mm 2 mps 750 mmHg 94%
    04:00 +9°C° 0 mm 2 mps 750 mmHg 94%
    05:00 +9°C° 0 mm 2 mps 750 mmHg 94%
    06:00 +10°C° 0 mm 2 mps 750 mmHg 93%
    07:00 +10°C° 0 mm 2 mps 750 mmHg 92%
    08:00 +10°C° 0 mm 2 mps 750 mmHg 92%
    09:00 +12°C° 0 mm 2 mps 750 mmHg 90%
    10:00 +13°C° 0 mm 2 mps 750 mmHg 87%
    11:00 +13°C° 0 mm 2 mps 751 mmHg 85%
    12:00 +14°C° 0 mm 2 mps 751 mmHg 84%
    13:00 +14°C° 0 mm 1 mps 751 mmHg 83%
    14:00 +14°C° 0 mm 1 mps 751 mmHg 82%
    15:00 +13°C° 0 mm 1 mps 751 mmHg 86%
    16:00 +12°C° 0 mm 1 mps 751 mmHg 89%
    17:00 +12°C° 0 mm 1 mps 751 mmHg 93%
    18:00 +12°C° 0 mm 1 mps 751 mmHg 93%
    19:00 +12°C° 0 mm 1 mps 751 mmHg 93%
    20:00 +12°C° 0 mm 1 mps 751 mmHg 93%
    21:00 +11°C° 0 mm 1 mps 751 mmHg 93%
    22:00 +11°C° 0 mm 1 mps 751 mmHg 94%
    23:00 +11°C° 0 mm 1 mps 751 mmHg 94%

    21 October, Monday

    Time Temperature Precipitation Wind Pressure Humidity
    00:00 +10°C° 0 mm 2 mps 750 mmHg 94%
    01:00 +10°C° 0 mm 2 mps 750 mmHg 94%
    02:00 +10°C° 0 mm 2 mps 750 mmHg 95%
    03:00 +10°C° 0 mm 2 mps 749 mmHg 94%
    04:00 +10°C° 0 mm 2 mps 749 mmHg 94%
    05:00 +10°C° 0 mm 3 mps 748 mmHg 93%
    06:00 +10°C° 0 mm 3 mps 748 mmHg 91%
    07:00 +10°C° 0 mm 4 mps 748 mmHg 89%
    08:00 +11°C° 0 mm 4 mps 747 mmHg 86%
    09:00 +11°C° 0 mm 4 mps 747 mmHg 84%
    10:00 +12°C° 0 mm 4 mps 747 mmHg 81%
    11:00 +13°C° 0 mm 4 mps 747 mmHg 78%
    12:00 +13°C° 0 mm 4 mps 747 mmHg 78%
    13:00 +14°C° 0 mm 4 mps 747 mmHg 77%
    14:00 +14°C° 0 mm 5 mps 746 mmHg 76%
    15:00 +14°C° 0 mm 4 mps 746 mmHg 79%
    16:00 +13°C° 0 mm 4 mps 746 mmHg 82%
    17:00 +13°C° 0 mm 3 mps 746 mmHg 85%
    18:00 +12°C° 0 mm 4 mps 746 mmHg 84%
    19:00 +12°C° 0 mm 4 mps 746 mmHg 84%
    20:00 +12°C° 0 mm 5 mps 747 mmHg 83%
    21:00 +11°C° 0 mm 4 mps 747 mmHg 81%
    22:00 +11°C° 0 mm 4 mps 747 mmHg 78%
    23:00 +10°C° 0 mm 4 mps 747 mmHg 76%
    Show more